Dewpoint
55 55 55 55 55 55 55 55 55 54 54 54 53 53 53 53 55 55 55 55 56 56 57 57 57 58 59 59 60 60 59 59 59 59 58 57 56 55 54 54 53 52
53 53 52 52 52 53 53 53 53 53 53 53 53 52 53 53 53 53 54 54 55 55 55 56 56 56 56 56 57 57 57 57 58 59 58 57 56 56 56 55 54 54
49 50 50 51 51 52 52 52 52 52 52 52 52 52 52 52 52 53 53 53 53 53 54 54 55 55 55 56 56 56 56 56 56 57 57 57 57 57 57 56 55 54
48 48 48 48 49 49 50 49 50 50 51 51 51 52 51 52 51 51 51 51 52 52 52 53 53 53 54 54 55 55 55 55 55 55 56 56 56 56 56 56 56 55
46 46 47 47 48 48 49 49 49 50 50 50 50 50 50 50 50 50 50 50 50 51 51 51 51 52 52 52 53 53 53 53 54 54 54 54 54 54 55 54 54 54
45 45 45 46 46 47 47 47 48 47 48 48 48 48 48 49 49 49 49 49 49 49 49 50 50 50 50 51 51 51 52 52 52 52 52 52 52 53 53 53 53 52
43 44 44 44 45 45 45 45 45 45 46 45 45 46 47 47 47 47 47 48 48 48 48 48 49 49 49 49 49 49 49 50 50 50 50 50 50 51 51 51 51 51
41 41 42 43 43 42 42 43 43 43 44 44 44 45 45 46 45 46 46 46 46 46 47 47 47 47 48 48 48 48 48 49 49 49 49 49 49 48 49 50 49 49
40 40 40 40 40 40 40 40 40 41 41 42 43 43 43 44 44 44 44 44 44 45 45 45 45 45 46 46 46 46 46 46 47 47 47 47 47 47 47 48 47 47
39 39 39 38 39 39 39 39 39 40 40 41 41 41 42 42 43 43 43 43 43 43 44 44 44 44 44 44 44 44 45 45 45 45 45 46 46 46 46 46 46 46
38 38 38 38 38 38 38 38 39 39 38 39 39 40 40 40 41 41 42 42 43 42 42 43 43 43 43 43 43 43 43 43 43 43 44 44 44 44 42 44 44 44
36 37 37 36 37 37 38 38 38 38 38 38 38 38 39 40 39 40 40 40 41 41 41 41 42 42 42 42 42 43 43 43 43 43 43 43 43 43 43 43 43 43
36 36 36 36 36 36 37 37 37 37 37 37 38 38 38 38 39 39 39 39 40 40 41 41 41 41 41 41 41 41 41 42 42 42 42 42 42 42 42 42 42 42
35 36 35 36 35 35 35 35 36 35 36 36 36 37 38 38 38 38 38 38 39 39 40 40 40 40 40 40 40 40 40 41 41 41 40 40 40 41 41 41 41 41
35 35 35 35 35 35 34 34 35 34 35 35 35 35 37 36 37 37 37 38 38 39 39 40 41 41 41 40 40 39 39 39 39 39 40 39 39 40 40 40 40 41
34 34 34 34 34 33 33 34 33 33 34 34 34 34 34 35 35 35 36 37 37 37 38 40 41 41 39 38 38 38 38 38 38 39 39 39 39 39 39 39 40 40
33 33 33 33 33 33 33 33 33 33 33 33 33 33 34 34 34 34 35 35 36 36 36 38 39 40 37 38 39 39 38 38 37 38 38 38 39 39 39 39 39 40
32 33 32 33 32 31 32 32 32 32 32 32 32 32 32 32 33 34 34 34 35 35 35 36 36 36 37 38 38 38 38 37 37 37 37 38 38 39 39 39 39 39
32 32 31 31 31 31 31 31 31 32 32 31 31 31 32 32 32 32 32 33 33 34 33 34 34 35 36 37 37 37 37 37 36 36 36 36 37 37 38 38 39 39
31 30 30 30 30 31 30 30 31 31 31 31 31 31 31 31 31 31 32 32 32 32 32 32 32 34 35 36 36 37 37 37 35 35 35 36 36 36 37 37 38 38
30 29 29 29 29 29 30 30 30 31 31 31 30 30 30 30 30 30 31 32 31 31 31 31 33 34 35 36 36 36 36 36 35 35 34 35 35 36 36 36 37 37
28 28 28 28 29 29 30 30 30 30 30 30 30 30 30 30 30 31 31 31 31 31 31 30 30 33 34 34 35 36 36 34 33 33 33 34 34 34 35 35 36 36
27 28 28 28 28 29 29 29 29 29 29 30 30 30 30 29 30 30 30 31 30 30 30 29 29 30 32 33 34 35 35 32 32 32 32 32 33 33 34 34 35 35
27 27 28 28 28 28 28 28 28 29 29 29 29 29 29 29 30 30 30 30 30 30 29 29 29 29 31 32 33 35 34 32 32 32 32 32 32 32 33 34 34 33
27 26 27 27 27 27 27 27 27 28 28 29 29 29 29 29 29 29 29 28 29 29 29 29 29 29 30 31 33 33 33 32 31 31 31 31 31 31 32 32 33 33
26 26 26 26 25 26 26 26 27 27 27 27 27 28 28 28 28 28 27 27 28 28 28 28 28 29 29 31 31 32 34 32 31 30 30 30 31 31 31 31 32 32